Activity Log for May, 08 2020

Back to Activity Log Search


Incident Time Nature Address
20F046011 00:03:06 46 DOMESTIC 3XX BRANDRIFF ST
20F046013 00:07:35 46 DOMESTIC 15XX NORTHBROOK BLVD
20F046012 00:08:28 48,36 GAYWOOD DR & CONGRESS AVE
20F046014 00:14:12 46 DOMESTIC 12XX PEMBERTON DR
20F046015 00:20:18 48,36 42XX W WASHINGTON CENTER RD
20F046016 00:22:58 1 MEET 35XX BROADWAY
20F046017 00:26:28 43 DISTURBANCE 42XX W JEFFERSON BLVD
20F046018 00:27:42 30 TRAFFIC STOP 48XX LIMA RD
20F046019 00:41:37 30 TRAFFIC STOP W COLISEUM BLVD & NEWAYGO RD
20F046020 00:43:28 44 NUISANCE 20XX HOBSON RD
20F046021 01:10:30 30 TRAFFIC STOP W COLISEUM BLVD & SPEEDWAY DR
20F046022 01:12:08 101 OPEN DOOR 13XX W WASHINGTON CENTER RD
20F046023 01:12:57 48 SUSPICIOUS W COX DR & S HARRISON ST
20F046025 01:13:09 34 TRAFF HAZARD BUTLER RD & GOSHEN RD
20F046024 01:13:21 113 SHOTS FIRED SHORT ST & FIFTH ST
20F046026 01:21:12 48,36 21XX OAKLEY ST
20F046027 01:22:45 30 TRAFFIC STOP W COLISEUM BLVD & HARRIS RD
20F046028 01:32:08 27 RECKLESS DRI REED ST & OXFORD ST
20F046029 01:36:29 113 SHOTS FIRED 29XX BOARDWALK CIR
20F046030 01:38:35 48 SUSPICIOUS 5XX TECUMSEH ST
20F046031 01:39:29 48,36 S HARRISON ST & W DEWALD ST
20F046032 01:41:12 113 SHOTS FIRED 48XX WEISSER PARK AVE
20F046033 01:47:32 30 TRAFFIC STOP E MAPLE GROVE AVE & S HANNA ST
20F046034 01:50:11 39R STOLEN RECO S HARRISON ST & W DEWALD ST
20F046035 02:00:47 66 MENTALLY ILL 41XX HESSEN CASSEL RD
20F046036 02:05:26 43 DISTURBANCE W DEWALD ST & WEBSTER ST
20F046037 02:11:20 43 DISTURBANCE E BERRY ST & S CALHOUN ST
20F046038 02:24:55 46 DOMESTIC 55XX COVENTRY LN
20F046039 02:27:17 46 DOMESTIC 15XX FISHER ST
20F046040 02:36:53 44LM 8XX KINNAIRD AVE
20F046041 02:50:17 39R STOLEN RECO 19XX WEBSTER ST
20F046043 03:03:09 40A AUDIBLE 18XX BLUFFTON RD
20F046044 03:11:22 48,35 N CLINTON ST & E WALLEN RD
20F046045 03:22:52 43 DISTURBANCE 6XX W RUDISILL BLVD
20F046046 03:34:49 30 TRAFFIC STOP E COLISEUM BLVD & HARRY BAALS DR
20F046047 03:37:08 103 UNWANTED 29XX BROADWAY
20F046048 04:28:11 129 35XX WAYNE TRACE
20F046049 04:36:33 911 HANG UP FLORIDA DR & NEVADA AVE
20F046050 04:55:00 101 OPEN DOOR 17XX RICHARDSON ST
20F046051 05:02:24 59 CUTTING/STAB XX UNF
20F046052 05:09:49 46 DOMESTIC 16XX RICHARDSON ST
20F046053 05:36:23 129 2XX E PETTIT AVE
20F046054 05:36:41 129 HESSEN CASSEL RD & MCKINNIE AVE
20F046055 05:40:51 25 PD ACCIDENT HILLEGAS RD & BASS RD
20F046056 05:53:51 30 TRAFFIC STOP PARNELL AVE & E COLISEUM BLVD
20F046057 05:54:12 23 VANDALISM 23XX GAY ST
20F046058 05:55:48 46,96 40XX AVONDALE DR
20F046059 06:03:46 25HS HIT SKIP W WAYNE ST & BROADWAY
20F046060 06:18:49 40 ALARM 53XX W WASHINGTON CENTER RD
20F046061 06:35:42 40A AUDIBLE 18XX BLUFFTON RD
20F046062 06:48:06 34 TRAFF HAZARD 312XX I 69 SB
20F046063 06:53:25 40A AUDIBLE 33XX LAKE AVE
20F046064 06:59:27 63 CONTACT 4XX EWING ST
20F046065 07:15:27 46 DOMESTIC 51XX LILLIE ST
20F046066 07:37:14 911 HANG UP GAY ST & E PONTIAC ST
20F046067 07:40:11 43,62 25XX GAY ST
20F046068 07:44:06 EMS 16XX ST JOE RIVER DR
20F046069 07:46:00 51,35 18XX S ANTHONY BLVD
20F046070 07:47:01 39 STOLEN VEHIC 61XX LANDOVER PL
20F046071 07:55:31 14S SERVING WAR 54XX SMITH ST
20F046072 07:56:59 103 UNWANTED 8XX S CLINTON ST
20F046073 08:03:16 48,35 42XX BEAVER AVE
20F046074 08:13:48 108 FOLLOWUP 30XX HILLEGAS RD
20F046075 08:19:20 129 82XX BECKETTS RIDGE LN
20F046076 08:47:32 51,35 50XX TRISTAM CT
20F046077 08:50:21 41,36 14XX WELLS ST
20F046078 08:53:10 40A AUDIBLE 25XX GLENCAIRN DR
20F046079 08:55:20 16,97 54XX SMITH ST
20F046080 08:58:18 16,97 54XX SMITH ST
20F046081 08:59:08 63 CONTACT 21XX GLENWOOD AVE
20F046084 08:59:13 50,ATTEMPTED 17XX LATHROP DR
20F046082 08:59:33 48 SUSPICIOUS 34XX SHERMAN BLVD
20F046083 09:06:11 96 BATTERY 2XX W SUPERIOR ST
20F046085 09:07:49 46,96 57XX COVENTRY LN
20F046086 09:10:03 911 HANG UP 42XX S CLINTON ST
20F046087 09:11:22 51,35 25XX JULIAN ST
20F046088 09:11:22 63 CONTACT 46XX E WASHINGTON BLVD
20F046089 09:19:21 43 DISTURBANCE 27XX CHARLOTTE AVE
20F046092 09:22:59 14 WARRANT 4XX E WILDWOOD AVE
20F046090 09:24:43 30 TRAFFIC STOP S CALHOUN ST & E PACKARD AVE
20F046091 09:25:13 103 UNWANTED 8XX S CALHOUN ST
20F046097 09:25:38 50 BURGLARY 25XX JULIAN ST
20F046094 09:25:48 63 CONTACT E PETTIT AVE & S LAFAYETTE ST
20F046093 09:28:19 40A AUDIBLE 8XX W DUPONT RD
20F046095 09:36:20 40A AUDIBLE 25XX LAKE AVE
20F046096 09:45:09 25 PD ACCIDENT 101XX LIMA RD
20F046098 09:56:45 22I JUV INVEST 103XX MISSAUKEE TRL
20F046099 10:03:37 40 ALARM 15XX BLUFFTON RD
20F046100 10:04:08 103 UNWANTED 8XX S CALHOUN ST
20F046101 10:11:00 40A AUDIBLE 34XX BROOKLYN AVE
20F046103 10:14:11 46 DOMESTIC 1XX COUNTRY FOREST DR
20F046102 10:14:18 57 STRONG ARM 14XX W WASHINGTON CENTER RD
20F046104 10:20:34 51,35 KINNAIRD AVE & FAIRFIELD AVE
20F046105 10:31:08 1 MEET XX E MAIN ST
20F046106 10:31:42 103 UNWANTED 30XX W COLISEUM BLVD
20F046107 10:32:24 911 HANG UP 33XX WAYNE TRACE
20F046109 10:35:21 50 BURGLARY 10XX SHORE DR
20F046108 10:35:51 129 16XX CASS ST
20F046110 10:40:44 51 THEFT XX E MAIN ST
20F046121 10:42:29 56 MOLESTING 35XX WATERTON CV
20F046111 10:57:23 25 PD ACCIDENT S CALHOUN ST & W WILLIAMS ST
20F046112 11:05:20 HARASSMENT 34XX MCCORMICK AVE
20F046113 11:07:46 51 THEFT 34XX E STATE BLVD
20F046114 11:12:08 30 TRAFFIC STOP 76XX LIMA RD
20F046115 11:12:20 103 UNWANTED 3XX LEXINGTON CT
20F046116 11:13:23 40A AUDIBLE 2XX AIRPORT NORTH OFFICE PARK
20F046117 11:26:19 129 30XX FROSCH DR
20F046119 11:30:05 25 PD ACCIDENT E COLISEUM BLVD & HOBSON RD
20F046118 11:30:41 1 MEET XX E MAIN ST
20F046120 11:31:42 25 PD ACCIDENT LIMA RD & CREMER AVE
20F046122 11:35:12 47 REMOVE ITEMS 15XX CASS ST
20F046123 11:40:51 25HS HIT SKIP 50XX WAYNE TRACE
20F046124 11:55:49 39R STOLEN RECO 17XX ANNETTE AVE
20F046125 11:58:00 30 TRAFFIC STOP E PONTIAC ST & QUEEN ST
20F046126 12:01:42 25 PD ACCIDENT W DUPONT RD & LIMA RD
20F046127 12:03:01 48 SUSPICIOUS S CALHOUN ST & E LEWIS ST
20F046128 12:06:54 50 BURGLARY 57XX WEBSTER ST
20F046129 12:10:21 41,36 53XX COLDWATER RD
20F046130 12:12:06 43 DISTURBANCE 11XX W WILDWOOD AVE
20F046131 12:16:48 46 DOMESTIC 82XX ROCKY GLEN PL
20F046132 12:17:52 46 DOMESTIC 50XX WERLING DR
20F046133 12:18:05 34 TRAFF HAZARD 5XX E DEWALD ST
20F046134 12:20:13 46 DOMESTIC 25XX DREXEL AVE
20F046136 12:22:09 40 ALARM 2XX AIRPORT NORTH OFFICE PARK
20F046140 12:22:14 47 REMOVE ITEMS 9XX W DEWALD ST
20F046135 12:22:34 83 INFO REPORT 25XX CAMBRIDGE BLVD
20F046137 12:24:30 103 UNWANTED 17XX APPLE GLEN BLVD
20F046138 12:26:04 25HS HIT SKIP 30XX W WASHINGTON CENTER RD
20F046139 12:27:20 18 WORK TRAFFIC WARSAW ST & E DEWALD ST
20F046141 12:40:38 30 TRAFFIC STOP SMITH ST & E RUDISILL BLVD
20F046142 12:48:47 43 DISTURBANCE 36XX S LAFAYETTE ST
20F046143 12:51:58 25 PD ACCIDENT EWING ST & W WASHINGTON BLVD
20F046144 12:53:22 41,36 51XX MEIJER DR
20F046145 13:00:11 26 PI ACCIDENT INDUSTRIAL RD & W WASHINGTON CENTE
20F046146 13:02:03 40A AUDIBLE 59XX BRIGHTLEAF CT
20F046147 13:03:07 48,36 41XX MAYBERRY ST
20F046149 13:03:58 37 PARKING VIOL BEACH ST & SPRING ST
20F046150 13:13:31 55 FIGHT 44XX SPATZ AVE
20F046151 13:14:12 46,96 5XX HOME AVE
20F046152 13:21:22 43 DISTURBANCE 14XX BAXTER ST
20F046154 13:22:24 22I JUV INVEST 8XX POPLAR ST
20F046153 13:27:49 25 PD ACCIDENT W WASHINGTON CENTER RD & GOSHEN RD
20F046160 13:31:03 47 REMOVE ITEMS 49XX NORTHCREST DR
20F046155 13:35:51 103 UNWANTED 69XX ORDWAY DR
20F046157 13:42:19 103 UNWANTED 21XX EDEN ST
20F046156 13:43:40 30 TRAFFIC STOP 2XX E COLISEUM BLVD
20F046158 13:50:18 103 UNWANTED 53XX COLDWATER RD
20F046159 13:55:52 30 TRAFFIC STOP S CLINTON ST & E WALLACE ST
20F046162 14:07:41 911 HANG UP 11XX E WALLACE ST
20F046161 14:08:13 97A LOST ITEMS 29XX GOSHEN RD
20F046164 14:09:08 25 PD ACCIDENT W MAIN ST & EWING ST
20F046163 14:09:26 97A LOST ITEMS 75XX S ANTHONY BLVD
20F046165 14:09:35 40A AUDIBLE 75XX HOPE DR
20F046166 14:19:34 30 TRAFFIC STOP E PONTIAC ST & REDWOOD AVE
20F046167 14:22:48 65A SUICIDE ATT 12XX SWINNEY AVE
20F046168 14:22:56 40A AUDIBLE 1XX CONGRESS AVE
20F046171 14:24:07 47 REMOVE ITEMS 11XX W WILDWOOD AVE
20F046169 14:25:53 46 DOMESTIC 31XX WELLS ST
20F046170 14:27:04 48,36 12XX MAGNAVOX WAY
20F046173 14:40:41 47 REMOVE ITEMS 13XX VANCE AVE
20F046172 14:43:19 7XX LOWER HUNTINGTON RD
20F046174 14:47:27 129 5XX TECUMSEH ST
20F046195 14:54:25 47 REMOVE ITEMS 9XX W DEWALD ST
20F046175 14:55:37 20 PROBLEM UNK 46XX E WASHINGTON BLVD
20F046176 14:57:22 65T SUICIDE THR 38XX HAMPSHIRE DR
20F046177 15:00:56 103 UNWANTED 27XX W COLISEUM BLVD
20F046178 15:02:34 65T SUICIDE THR LAKE AVE & BEACON ST
20F046179 15:03:24 48,35 54XX S ANTHONY BLVD
20F046180 15:04:38 46 DOMESTIC 51XX LILLIE ST
20F046182 15:06:04 103 UNWANTED 63XX LIMA RD
20F046181 15:06:31 65T SUICIDE THR 18XX GRISWOLD DR
20F046183 15:14:39 48,36 GRIER ST & BOWSER AVE
20F046185 15:18:39 80 CIVIL INVEST XX E MAIN ST
20F046189 15:27:37 18 WORK TRAFFIC 33XX LOWER HUNTINGTON RD
20F046186 15:28:02 26 PI ACCIDENT WAYNEWOOD DR & BEATY AVE
20F046187 15:32:09 HARASSMENT 37XX BURRWOOD TER
20F046190 15:33:47 911 HANG UP 2XX W JEFFERSON BLVD
20F046191 15:38:35 34 TRAFF HAZARD W MAIN ST & BROADWAY
20F046192 15:40:52 11C CAGE CAR 53XX COLDWATER RD
20F046193 15:41:02 911 HANG UP 9XX S LAFAYETTE ST
20F046194 15:43:19 23 VANDALISM 9XX RIDGEWOOD DR
20F046196 15:59:01 40A AUDIBLE 27XX OJIBWAY TRL
20F046197 16:07:36 70 STRUCTURE 33XX LOWER HUNTINGTON RD
20F046198 16:12:59 25 PD ACCIDENT WELLS ST & PUTNAM ST
20F046205 16:16:07 47 REMOVE ITEMS 5XX BLUEBERRY LN
20F046200 16:18:53 43 DISTURBANCE 35XX BOWSER AVE
20F046199 16:20:16 48 SUSPICIOUS WINTER ST & HURD ST
20F046201 16:20:33 103 UNWANTED 76XX S ANTHONY BLVD
20F046202 16:22:11 48 SUSPICIOUS BROADWAY & KINSMOOR AVE
20F046203 16:26:38 25 PD ACCIDENT S BARR ST & E WASHINGTON BLVD
20F046204 16:30:22 48 SUSPICIOUS 63XX LIMA RD
20F046206 16:38:04 30 TRAFFIC STOP W LUDWIG RD & INNOVATION BLVD
20F046207 16:39:21 83 INFO REPORT 73XX HAWKSNEST TRL
20F046210 16:40:11 40A AUDIBLE 42XX BOWSER AVE
20F046208 16:40:31 51 THEFT 59XX CROSS CREEK BLVD
20F046211 16:41:14 46 DOMESTIC 53XX REED ST
20F046212 16:49:29 30 TRAFFIC STOP W LUDWIG RD & INNOVATION BLVD
20F046213 16:50:00 63 CONTACT W STATE BLVD & SHERMAN BLVD
20F046214 16:51:52 43 DISTURBANCE 43XX S ANTHONY BLVD
20F046215 16:52:46 25 PD ACCIDENT 62XX S SAPPHIRE TRL
20F046217 16:53:39 11C CAGE CAR 53XX COLDWATER RD
20F046216 16:54:24 51 THEFT 24XX S CALHOUN ST
20F046219 16:55:55 EMS 35XX W COLISEUM BLVD
20F046218 16:56:05 1 MEET 70XX COLDWATER RD
20F046220 17:01:11 43 DISTURBANCE 16XX BAYVIEW DR
20F046221 17:04:04 HARASSMENT 12XX ELM ST
20F046223 17:04:19 40P PANIC ALARM 62XX WEBSTER ST
20F046222 17:04:36 66 MENTALLY ILL 32XX PARNELL AVE
20F046224 17:06:59 51 THEFT 49XX LIMA RD
20F046225 17:09:13 25 PD ACCIDENT W WASHINGTON CENTER RD & HOMEWOOD
20F046226 17:13:39 51JO 4XX W CREIGHTON AVE
20F046227 17:16:05 102 THREATS 15XX SPRING ST
20F046228 17:18:14 26 PI ACCIDENT ARCHER AVE & ST MARYS AVE
20F046229 17:18:29 15 ASSIST 33XX LOWER HUNTINGTON RD
20F046231 17:21:53 25HS HIT SKIP HOME AVE & BROADWAY
20F046230 17:22:31 22I JUV INVEST ARLINGTON AVE & W RUDISILL BLVD
20F046232 17:25:25 40P PANIC ALARM 56XX RENFREW DR
20F046233 17:27:06 30 TRAFFIC STOP S HANNA ST & E CREIGHTON AVE
20F046234 17:35:51 65T SUICIDE THR 101XX LIMA RD
20F046235 17:46:52 30 TRAFFIC STOP SMITH ST & BUCHANAN ST
20F046236 17:46:52 25 PD ACCIDENT 63XX W JEFFERSON BLVD
20F046237 17:47:38 51 THEFT 2XX W LEITH ST
20F046238 17:48:06 43 DISTURBANCE 65XX ST JOE RD
20F046239 17:50:01 103 UNWANTED 4XX E RUDISILL BLVD
20F046240 17:56:28 43 DISTURBANCE 63XX BLUFFTON RD
20F046241 18:12:30 63 CONTACT ILLINOIS RD & APPLE GLEN BLVD
20F046243 18:14:01 56 MOLESTING 29XX GLENWOOD AVE
20F046247 18:19:06 40A AUDIBLE 7XX THIEME DR
20F046244 18:19:10 51 THEFT 14XX FLETCHER AVE
20F046246 18:19:40 46,96 28XX FOX AVE
20F046245 18:19:47 43 DISTURBANCE 65XX ST JOE RD
20F046248 18:28:44 47 REMOVE ITEMS 53XX CHANTILLY DR
20F046249 18:38:47 41 MAN DOWN 13XX HUESTIS AVE
20F046250 18:42:39 55 FIGHT 42XX COLDWATER RD
20F046254 18:45:36 40A AUDIBLE 7XX INCENTIVE DR
20F046252 18:46:25 26 PI ACCIDENT S CLINTON ST & E WASHINGTON BLVD
20F046253 18:49:02 46 DOMESTIC 64XX E STATE BLVD
20F046255 18:51:50 48 SUSPICIOUS 33XX W COLISEUM BLVD
20F046259 18:59:50 43 DISTURBANCE 29XX GOSHEN RD
20F046258 19:01:10 46 DOMESTIC 11XX DELAWARE AVE
20F046256 19:01:37 16,97 19XX GETZ RD
20F046257 19:02:50 129 63XX RESERVE LINE RD
20F046260 19:07:16 22I JUV INVEST 53XX COLDWATER RD
20F046261 19:16:57 96JO 15XX LAKEHURST DR
20F046262 19:16:59 46 DOMESTIC LOWER HUNTINGTON RD & BRADBURY AVE
20F046263 19:22:09 25HS HIT SKIP E TILLMAN RD & HESSEN CASSEL RD
20F046266 19:23:42 25 PD ACCIDENT 55XX COLDWATER RD
20F046264 19:23:53 48 SUSPICIOUS BROADWAY & TAYLOR ST
20F046265 19:25:01 25HS HIT SKIP 42XX COLDWATER RD
20F046269 19:28:07 25HS HIT SKIP 47XX COLDWATER RD
20F046267 19:31:36 40I INTRUSION 39XX HESSEN CASSEL RD
20F046268 19:34:54 63 CONTACT 30XX EUCLID AVE
20F046270 19:40:01 15,84 ASS URGEN 22XX RANDALLIA DR
20F046271 19:45:16 27 RECKLESS DRI 16XX REED RD
20F046274 19:48:25 46,96 22XX NEW HAVEN AVE
20F046272 19:49:25 30 TRAFFIC STOP E COLISEUM BLVD & TRIER RD
20F046273 19:49:40 33,34 BROADWAY & W JEFFERSON BLVD
20F046275 19:50:45 20 PROBLEM UNK FERNWOOD AVE & ELMHURST DR
20F046276 19:53:18 96JO CLAY ST & E WASHINGTON BLVD
20F046278 20:04:21 48 SUSPICIOUS 16XX FAIRFIELD AVE
20F046281 20:05:52 46 DOMESTIC 68XX WINFORD SHOALS
20F046280 20:08:06 40 ALARM 15XX HOBSON RD
20F046307 20:08:39 30 TRAFFIC STOP QUEEN ST & OXFORD ST
20F046282 20:14:36 41 MAN DOWN BROADWAY & W CREIGHTON AVE
20F046284 20:15:49 25HS HIT SKIP 10XX COLUMBIA AVE
20F046283 20:16:19 22N CHILD NEGLE 24XX HUBERTUS AVE
20F046285 20:18:38 48 SUSPICIOUS OSAGE ST & RICHARDSON ST
20F046287 20:20:20 101 OPEN DOOR 50XX MARSTON DR
20F046286 20:21:15 40A AUDIBLE 1XX E PETTIT AVE
20F046288 20:22:48 46 DOMESTIC 15XX ROY ST
20F046289 20:31:42 108 FOLLOWUP 5XX STRATTON RD
20F046290 20:32:09 40I INTRUSION 33XX E PAULDING RD
20F046291 20:40:17 40A AUDIBLE 18XX WAYNE TRACE
20F046294 20:41:12 1 MEET 22XX DUNKELBERG RD
20F046292 20:43:36 48,36 44XX BLUFFTON RD
20F046293 20:48:25 63 CONTACT ELMER AVE & SHERMAN BLVD
20F046295 20:51:08 911 HANG UP 20XX COVINGTON RD
20F046296 20:55:08 30 TRAFFIC STOP 39XX E STATE BLVD
20F046297 20:56:42 48 SUSPICIOUS 49XX CLOVERBROOK DR
20F046298 21:06:36 101 OPEN DOOR 26XX MAUMEE AVE
20F046299 21:08:19 26HS PI HITSKIP W MAIN ST & VAN BUREN ST
20F046300 21:09:52 65T SUICIDE THR 82XX LAKESIDE CT
20F046301 21:12:48 25HS HIT SKIP 38XX COLDWATER RD
20F046302 21:17:26 102,TX THREATS 65XX ST JOE RD
20F046303 21:19:18 30 TRAFFIC STOP 3XX S CLINTON ST
20F046305 21:20:37 911 HANG UP 44XX E WASHINGTON BLVD
20F046304 21:21:54 62 PARTY ARMED 11XX HIGH ST
20F046306 21:23:19 14S SERVING WAR 35XX MEDA PASS
20F046308 21:25:07 40A AUDIBLE 38XX WENONAH LN
20F046309 21:29:02 25HS HIT SKIP OXFORD ST & S ANTHONY BLVD
20F046310 21:33:38 66V MENTAL VIOL 33XX BEAVER AVE
20F046311 21:39:42 ATL 11XX ONEIDA ST
20F046312 21:41:00 43 DISTURBANCE 6XX TENNESSEE AVE
20F046319 21:43:42 44FW W DUPONT RD & NOTTAWA TRL
20F046313 21:47:51 96IP 29XX BROADWAY
20F046315 21:50:04 43 DISTURBANCE 44XX S ANTHONY BLVD
20F046314 21:50:06 99 NARCOTICS 48XX COVENTRY PKWY
20F046316 21:53:52 26 PI ACCIDENT W PACKARD AVE & HOAGLAND AVE
20F046318 21:55:43 48 SUSPICIOUS 16XX WELLS ST
20F046317 21:56:50 43,62 33XX SMITH ST
20F046320 22:01:25 46,96 74XX SPRINGHILL DR
20F046322 22:03:30 25HS HIT SKIP 7XX UNION ST
20F046321 22:03:38 15 ASSIST 10XX W WASHINGTON CENTER RD
20F046324 22:07:47 113 SHOTS FIRED 8XX TENNESSEE AVE
20F046323 22:09:50 911 HANG UP 57XX ST JOE RD
20F046326 22:09:59 37 PARKING VIOL 8XX KINNAIRD AVE
20F046325 22:13:27 46,96 22XX BEACON ST
20F046327 22:18:04 30 TRAFFIC STOP LIMA RD & I 69 311 SB ON RAMP
20F046328 22:18:43 30 TRAFFIC STOP ST JOE RD & EVARD RD
20F046329 22:18:54 40A AUDIBLE 63XX ILLINOIS RD
20F046330 22:19:13 103 UNWANTED 33XX W COLISEUM BLVD
20F046331 22:26:00 129 1XX W COLUMBIA ST
20F046333 22:26:46 63 CONTACT 28XX DUPONT COMMERCE CT
20F046332 22:27:03 44LP W MAIN ST & UNION ST
20F046336 22:27:19 911 HANG UP 37XX E WASHINGTON BLVD
20F046337 22:27:39 911 HANG UP 32XX WAYNE TRACE
20F046335 22:28:10 48 SUSPICIOUS 46XX E WASHINGTON BLVD
20F046334 22:28:24 96IP 21XX EDEN ST
20F046339 22:31:46 66 MENTALLY ILL 9XX FARWOOD AVE
20F046340 22:32:12 96 BATTERY 14XX MEDICAL PARK DR
20F046338 22:32:45 30 TRAFFIC STOP N CLINTON ST & GROVE ST
20F046341 22:33:51 70 STRUCTURE 10XX W WASHINGTON CENTER RD
20F046343 22:34:02 46 DOMESTIC 17XX HIGH ST
20F046342 22:37:30 33,34 S LAFAYETTE ST & E MAIN ST
20F046345 22:40:00 48 SUSPICIOUS 35XX W COLISEUM BLVD
20F046344 22:40:38 30 TRAFFIC STOP 45XX ST JOE CENTER RD
20F046346 22:55:50 48,36 72XX MAPLECREST RD
20F046347 22:57:28 43 DISTURBANCE 64XX COVINGTON RD
20F046348 23:13:41 48 SUSPICIOUS 28XX LILLIE ST
20F046350 23:17:31 46,96 65XX COVINGTON RD
20F046349 23:17:54 40A AUDIBLE 36XX LIMA RD
20F046352 23:26:12 EMS 15XX SPY RUN AVE
20F046351 23:28:39 113 SHOTS FIRED 28XX GENESEE AVE
20F046353 23:31:14 40A AUDIBLE 30XX S MONROE ST
20F046355 23:36:01 99 NARCOTICS 4XX RIDGEMOOR DR
20F046357 23:37:25 ATL 31XX S MONROE ST
20F046354 23:38:19 30 TRAFFIC STOP WINTER ST & SENATE AVE
20F046358 23:39:43 911 HANG UP 28XX E STATE BLVD
20F046356 23:40:34 55 FIGHT 18XX NELSON ST
20F046359 23:42:18 48 SUSPICIOUS 8XX BUCHANAN ST
20F046360 23:49:35 40A AUDIBLE 61XX STELLHORN RD
20F046362 23:58:19 43 DISTURBANCE 22XX BEACON ST
20F046361 23:58:55 43 DISTURBANCE 52XX EASTWICK DR